| time (UTC) | temp F | wind direction | speed MPH | gust MPH | rain 1hr in | rain 24hr in | rain mn in | humidity % | barometer mb |
| 20260903133608 | 66 | 300 | 0.0 | 2.0 | 0.03 | 0.04 | 0.00 | 73 | 1019.8 |
| 20260903133107 | 67 | 314 | 1.0 | 2.0 | 0.04 | 0.04 | 0.00 | 71 | 1019.8 |
| 20260903132613 | 67 | 311 | 0.0 | 2.0 | 0.04 | 0.04 | 0.00 | 72 | 1020.2 |
| 20260903132110 | 67 | 297 | 0.0 | 2.0 | 0.04 | 0.04 | 0.00 | 70 | 1020.2 |
| 20260903131613 | 67 | 324 | 1.0 | 5.0 | 0.04 | 0.04 | 0.00 | 66 | 1020.2 |
| 20260903131107 | 68 | 247 | 2.0 | 7.0 | 0.03 | 0.03 | 0.00 | 65 | 1020.2 |
| 20260903130616 | 68 | 283 | 1.0 | 8.0 | 0.02 | 0.02 | 0.00 | 62 | 1020.2 |
| 20260903130108 | 69 | 285 | 2.0 | 7.0 | 0.02 | 0.02 | 0.00 | 59 | 1020.2 |
| 20260903125610 | 69 | 314 | 2.0 | 12.0 | 0.01 | 0.01 | 0.00 | 57 | 1020.2 |
| 20260903125107 | 70 | 267 | 3.0 | 11.0 | 0.01 | 0.01 | 0.00 | 56 | 1020.2 |
| 20260903124610 | 70 | 272 | 4.0 | 7.0 | 0.00 | 0.00 | 0.00 | 56 | 1020.2 |
| 20260903124108 | 71 | 226 | 1.0 | 4.0 | 0.00 | 0.00 | 0.00 | 60 | 1019.8 |
| 20260903123613 | 71 | 287 | 2.0 | 6.0 | 0.00 | 0.00 | 0.00 | 52 | 1019.8 |
| 20260903123110 | 72 | 276 | 2.0 | 11.0 | 0.00 | 0.00 | 0.00 | 48 | 1019.8 |
| 20260903122607 | 73 | 251 | 1.0 | 5.0 | 0.00 | 0.00 | 0.00 | 45 | 1019.8 |
| 20260903122110 | 73 | 187 | 1.0 | 8.0 | 0.00 | 0.00 | 0.00 | 46 | 1019.5 |
| 20260903121610 | 73 | 234 | 3.0 | 9.0 | 0.00 | 0.00 | 0.00 | 45 | 1019.8 |
| 20260903121113 | 73 | 197 | 1.0 | 10.0 | 0.00 | 0.00 | 0.00 | 45 | 1019.8 |
| 20260903120609 | 73 | 242 | 3.0 | 13.0 | 0.00 | 0.00 | 0.00 | 45 | 1019.8 |
| 20260903120107 | 73 | 255 | 1.0 | 11.0 | 0.00 | 0.00 | 0.00 | 45 | 1019.8 |
| 20260903115610 | 73 | 260 | 4.0 | 11.0 | 0.00 | 0.00 | 0.00 | 43 | 1020.2 |
| 20260903115111 | 73 | 242 | 2.0 | 10.0 | 0.00 | 0.00 | 0.00 | 43 | 1020.2 |
| 20260903114616 | 74 | 195 | 2.0 | 13.0 | 0.00 | 0.00 | 0.00 | 43 | 1020.2 |
| 20260903114111 | 74 | 282 | 5.0 | 13.0 | 0.00 | 0.00 | 0.00 | 40 | 1020.5 |
| 20260903113607 | 76 | 235 | 3.0 | 7.0 | 0.00 | 0.00 | 0.00 | 39 | 1020.5 |
| 20260903113110 | 76 | 246 | 3.0 | 8.0 | 0.00 | 0.00 | 0.00 | 40 | 1020.2 |
| 20260903112614 | 75 | 238 | 2.0 | 8.0 | 0.00 | 0.00 | 0.00 | 41 | 1020.2 |
| 20260903112110 | 74 | 214 | 3.0 | 8.0 | 0.00 | 0.00 | 0.00 | 42 | 1020.5 |
| 20260903111607 | 74 | 263 | 2.0 | 7.0 | 0.00 | 0.00 | 0.00 | 42 | 1020.2 |
| 20260903111110 | 74 | 245 | 2.0 | 8.0 | 0.00 | 0.00 | 0.00 | 42 | 1020.5 |
| 20260903110611 | 74 | 281 | 3.0 | 9.0 | 0.00 | 0.00 | 0.00 | 42 | 1020.5 |
| 20260903110107 | 74 | 217 | 2.0 | 9.0 | 0.00 | 0.00 | 0.00 | 44 | 1020.5 |
| 20260903105607 | 72 | 245 | 2.0 | 8.0 | 0.00 | 0.00 | 0.00 | 45 | 1020.5 |
| 20260903105110 | 72 | 245 | 3.0 | 7.0 | 0.00 | 0.00 | 0.00 | 44 | 1020.5 |
| 20260903104607 | 72 | 223 | 2.0 | 8.0 | 0.00 | 0.00 | 0.00 | 45 | 1020.5 |
| 20260903104113 | 71 | 249 | 3.0 | 9.0 | 0.00 | 0.00 | 0.00 | 45 | 1020.5 |
| 20260903103607 | 71 | 253 | 5.0 | 10.0 | 0.00 | 0.00 | 0.00 | 44 | 1020.5 |
| 20260903103113 | 71 | 258 | 2.0 | 10.0 | 0.00 | 0.00 | 0.00 | 43 | 1020.5 |
| 20260903102607 | 71 | 226 | 3.0 | 12.0 | 0.00 | 0.00 | 0.00 | 43 | 1020.5 |
| 20260903102107 | 72 | 224 | 1.0 | 11.0 | 0.00 | 0.00 | 0.00 | 43 | 1020.9 |
| 20260903101607 | 72 | 259 | 5.0 | 11.0 | 0.00 | 0.00 | 0.00 | 41 | 1020.9 |
| 20260903101110 | 72 | 242 | 4.0 | 10.0 | 0.00 | 0.00 | 0.00 | 42 | 1020.9 |
| 20260903100607 | 72 | 287 | 4.0 | 12.0 | 0.00 | 0.00 | 0.00 | 42 | 1020.9 |
| 20260903100110 | 72 | 261 | 6.0 | 13.0 | 0.00 | 0.00 | 0.00 | 41 | 1020.9 |
| 20260903095610 | 73 | 257 | 3.0 | 10.0 | 0.00 | 0.00 | 0.00 | 41 | 1020.9 |
| 20260903095108 | 73 | 249 | 2.0 | 11.0 | 0.00 | 0.00 | 0.00 | 41 | 1020.9 |
| 20260903094610 | 73 | 252 | 3.0 | 8.0 | 0.00 | 0.00 | 0.00 | 41 | 1020.9 |
| 20260903094113 | 73 | 267 | 1.0 | 10.0 | 0.00 | 0.00 | 0.00 | 42 | 1020.9 |
| 20260903093607 | 72 | 186 | 3.0 | 8.0 | 0.00 | 0.00 | 0.00 | 42 | 1020.9 |
| 20260903093107 | 72 | 241 | 2.0 | 8.0 | 0.00 | 0.00 | 0.00 | 41 | 1020.9 |
| 20260903092609 | 73 | 265 | 2.0 | 7.0 | 0.00 | 0.00 | 0.00 | 41 | 1020.9 |
| 20260903092113 | 73 | 204 | 3.0 | 7.0 | 0.00 | 0.00 | 0.00 | 41 | 1020.5 |
| 20260903091607 | 72 | 265 | 2.0 | 7.0 | 0.00 | 0.00 | 0.00 | 42 | 1020.5 |
| 20260903091107 | 72 | 226 | 1.0 | 8.0 | 0.00 | 0.00 | 0.00 | 43 | 1020.9 |
| 20260903090607 | 72 | 232 | 3.0 | 8.0 | 0.00 | 0.00 | 0.00 | 42 | 1020.9 |
| 20260903090107 | 72 | 240 | 2.0 | 6.0 | 0.00 | 0.00 | 0.00 | 42 | 1020.5 |
| 20260903085611 | 72 | 211 | 2.0 | 5.0 | 0.00 | 0.00 | 0.00 | 43 | 1020.9 |
| 20260903085108 | 70 | 236 | 2.0 | 6.0 | 0.00 | 0.00 | 0.00 | 43 | 1020.9 |
| 20260903084607 | 72 | 216 | 1.0 | 6.0 | 0.00 | 0.00 | 0.00 | 42 | 1020.9 |
| 20260903084111 | 72 | 177 | 2.0 | 5.0 | 0.00 | 0.00 | 0.00 | 41 | 1020.9 |
| 20260903083610 | 72 | 185 | 1.0 | 3.0 | 0.00 | 0.00 | 0.00 | 42 | 1020.9 |
| 20260903083113 | 71 | 267 | 1.0 | 5.0 | 0.00 | 0.00 | 0.00 | 43 | 1020.9 |
| 20260903082613 | 71 | 251 | 1.0 | 4.0 | 0.00 | 0.00 | 0.00 | 43 | 1020.9 |
| 20260903082108 | 70 | 182 | 0.0 | 3.0 | 0.00 | 0.00 | 0.00 | 48 | 1020.9 |
| 20260903081613 | 69 | 223 | 1.0 | 4.0 | 0.00 | 0.00 | 0.00 | 47 | 1020.9 |
| 20260903081107 | 69 | 152 | 1.0 | 2.0 | 0.00 | 0.00 | 0.00 | 49 | 1020.9 |
| 20260903080607 | 67 | 151 | 0.0 | 5.0 | 0.00 | 0.00 | 0.00 | 51 | 1020.9 |
| 20260903080113 | 67 | 182 | 2.0 | 5.0 | 0.00 | 0.00 | 0.00 | 51 | 1020.5 |
| 20260903075607 | 67 | 179 | 3.0 | 7.0 | 0.00 | 0.00 | 0.00 | 50 | 1020.5 |
| 20260903075107 | 67 | 175 | 2.0 | 5.0 | 0.00 | 0.00 | 0.00 | 50 | 1020.5 |
| 20260903074610 | 66 | 190 | 0.0 | 6.0 | 0.00 | 0.00 | 0.00 | 52 | 1020.5 |
| 20260903074113 | 66 | 171 | 1.0 | 5.0 | 0.00 | 0.00 | 0.00 | 53 | 1020.5 |
| 20260903073613 | 67 | 203 | 2.0 | 5.0 | 0.00 | 0.00 | 0.00 | 53 | 1020.5 |
| 20260903073108 | 66 | 162 | 1.0 | 6.0 | 0.00 | 0.00 | 0.00 | 53 | 1020.9 |
| 20260903072610 | 66 | 267 | 0.0 | 5.0 | 0.00 | 0.00 | 0.00 | 54 | 1020.9 |
| 20260903072108 | 66 | 131 | 1.0 | 2.0 | 0.00 | 0.00 | 0.00 | 54 | 1020.9 |
| 20260903071610 | 66 | 163 | 0.0 | 4.0 | 0.00 | 0.00 | 0.00 | 55 | 1020.9 |
| 20260903071113 | 66 | 234 | 1.0 | 3.0 | 0.00 | 0.00 | 0.00 | 55 | 1021.3 |
| 20260903070607 | 65 | 179 | 1.0 | 3.0 | 0.00 | 0.00 | 0.00 | 57 | 1020.9 |
| 20260903070113 | 64 | 174 | 1.0 | 3.0 | 0.00 | 0.00 | 0.00 | 59 | 1020.9 |
| 20260903065607 | 64 | 142 | 0.0 | 2.0 | 0.00 | 0.00 | 0.00 | 63 | 1021.3 |
| 20260903065110 | 63 | 156 | 0.0 | 3.0 | 0.00 | 0.00 | 0.00 | 64 | 1021.3 |
| 20260903064608 | 62 | 95 | 1.0 | 3.0 | 0.00 | 0.00 | 0.00 | 64 | 1021.3 |
| 20260903064107 | 63 | 92 | 1.0 | 3.0 | 0.00 | 0.00 | 0.00 | 64 | 1021.3 |
| 20260903063611 | 63 | 118 | 1.0 | 3.0 | 0.00 | 0.00 | 0.00 | 64 | 1021.3 |
| 20260903063107 | 61 | 131 | 1.0 | 3.0 | 0.00 | 0.00 | 0.00 | 68 | 1021.3 |
| 20260903062607 | 61 | 5 | 1.0 | 3.0 | 0.00 | 0.00 | 0.00 | 67 | 1021.3 |
| 20260903062107 | 61 | 128 | 1.0 | 1.0 | 0.00 | 0.00 | 0.00 | 66 | 1021.3 |
| 20260903061607 | 59 | 98 | 0.0 | 3.0 | 0.00 | 0.00 | 0.00 | 71 | 1021.3 |
| 20260903061107 | 58 | 12 | 1.0 | 2.0 | 0.00 | 0.00 | 0.00 | 73 | 1021.3 |
| 20260903060611 | 58 | 3 | 1.0 | 2.0 | 0.00 | 0.00 | 0.00 | 73 | 1021.3 |
| 20260903060107 | 58 | 287 | 0.0 | 1.0 | 0.00 | 0.00 | 0.00 | 73 | 1021.3 |
| 20260903055607 | 58 | 17 | 0.0 | 1.0 | 0.00 | 0.00 | 0.00 | 73 | 1021.3 |
| 20260903055110 | 57 | 116 | 0.0 | 2.0 | 0.00 | 0.00 | 0.00 | 75 | 1021.3 |
| 20260903054607 | 56 | 62 | 0.0 | 2.0 | 0.00 | 0.00 | 0.00 | 78 | 1021.3 |
| 20260903054107 | 56 | 353 | 0.0 | 2.0 | 0.00 | 0.00 | 0.00 | 78 | 1020.9 |
| 20260903053616 | 56 | 10 | 0.0 | 2.0 | 0.00 | 0.00 | 0.00 | 77 | 1020.9 |
| 20260903053107 | 56 | 104 | 0.0 | 2.0 | 0.00 | 0.00 | 0.00 | 79 | 1020.9 |
| 20260903052610 | 56 | 88 | 0.0 | 2.0 | 0.00 | 0.00 | 0.00 | 80 | 1020.5 |
| 20260903052107 | 55 | 98 | 0.0 | 2.0 | 0.00 | 0.00 | 0.00 | 81 | 1020.5 |
| 20260903051610 | 55 | 135 | 0.0 | 2.0 | 0.00 | 0.00 | 0.00 | 82 | 1020.5 |
| 20260903051107 | 54 | 172 | 1.0 | 3.0 | 0.00 | 0.00 | 0.00 | 82 | 1020.5 |
| 20260903050610 | 54 | 153 | 2.0 | 11.0 | 0.00 | 0.00 | 0.00 | 82 | 1020.5 |
| 20260903050107 | 54 | 165 | 2.0 | 11.0 | 0.00 | 0.00 | 0.00 | 83 | 1020.5 |
| 20260903045611 | 54 | 125 | 1.0 | 2.0 | 0.00 | 0.00 | 0.00 | 83 | 1020.5 |
| 20260903045107 | 54 | 155 | 1.0 | 2.0 | 0.00 | 0.00 | 0.00 | 84 | 1020.5 |
| 20260903044607 | 54 | 147 | 1.0 | 2.0 | 0.00 | 0.00 | 0.00 | 84 | 1020.5 |
| 20260903044107 | 54 | 160 | 0.0 | 1.0 | 0.00 | 0.00 | 0.00 | 84 | 1020.5 |
| 20260903043610 | 54 | 181 | 1.0 | 2.0 | 0.00 | 0.00 | 0.00 | 84 | 1020.5 |
| 20260903043113 | 54 | 181 | 1.0 | 2.0 | 0.00 | 0.00 | 0.00 | 85 | 1020.5 |
| 20260903042613 | 54 | 324 | 0.0 | 2.0 | 0.00 | 0.00 | 0.00 | 85 | 1020.5 |
| 20260903042113 | 54 | 140 | 1.0 | 1.0 | 0.00 | 0.00 | 0.00 | 85 | 1020.5 |
| 20260903041607 | 54 | 105 | 0.0 | 1.0 | 0.00 | 0.00 | 0.00 | 85 | 1020.5 |
| 20260903041110 | 55 | 97 | 0.0 | 2.0 | 0.00 | 0.00 | 0.00 | 85 | 1020.5 |
| 20260903040613 | 55 | 93 | 1.0 | 3.0 | 0.00 | 0.00 | 0.00 | 85 | 1020.5 |
| 20260903040107 | 55 | 73 | 2.0 | 3.0 | 0.00 | 0.00 | 0.00 | 85 | 1020.5 |
| 20260903035607 | 55 | 74 | 0.0 | 2.0 | 0.00 | 0.00 | 0.00 | 85 | 1020.5 |
| 20260903035107 | 55 | 206 | 0.0 | 1.0 | 0.00 | 0.00 | 0.00 | 84 | 1020.5 |
| 20260903034610 | 55 | 263 | 0.0 | 1.0 | 0.00 | 0.00 | 0.00 | 84 | 1020.5 |
| 20260903034107 | 55 | 298 | 0.0 | 1.0 | 0.00 | 0.00 | 0.00 | 84 | 1020.9 |
| 20260903033611 | 55 | 318 | 0.0 | 1.0 | 0.00 | 0.00 | 0.00 | 84 | 1020.5 |
| 20260903033110 | 55 | 286 | 0.0 | 1.0 | 0.00 | 0.00 | 0.00 | 84 | 1020.5 |
| 20260903032607 | 55 | 292 | 0.0 | 1.0 | 0.00 | 0.00 | 0.00 | 84 | 1020.5 |
| 20260903032111 | 55 | 311 | 0.0 | 1.0 | 0.00 | 0.00 | 0.00 | 83 | 1020.5 |
| 20260903031614 | 55 | 311 | 0.0 | 1.0 | 0.00 | 0.00 | 0.00 | 83 | 1020.5 |
| 20260903031107 | 55 | 216 | 0.0 | 1.0 | 0.00 | 0.00 | 0.00 | 83 | 1020.5 |
| 20260903030611 | 55 | 226 | 0.0 | 1.0 | 0.00 | 0.00 | 0.00 | 83 | 1020.5 |
| 20260903030108 | 55 | 297 | 0.0 | 1.0 | 0.00 | 0.00 | 0.00 | 83 | 1020.5 |
| 20260903025607 | 55 | 326 | 0.0 | 1.0 | 0.00 | 0.00 | 0.00 | 83 | 1020.5 |
| 20260903025108 | 56 | 304 | 0.0 | 1.0 | 0.00 | 0.00 | 0.00 | 83 | 1020.5 |
| 20260903024611 | 56 | 274 | 0.0 | 1.0 | 0.00 | 0.00 | 0.00 | 83 | 1020.5 |
| 20260903024107 | 56 | 319 | 0.0 | 1.0 | 0.00 | 0.00 | 0.00 | 83 | 1020.5 |
| 20260903023607 | 56 | 322 | 0.0 | 1.0 | 0.00 | 0.00 | 0.00 | 83 | 1020.5 |
| 20260903023107 | 56 | 319 | 0.0 | 1.0 | 0.00 | 0.00 | 0.00 | 83 | 1020.5 |
| 20260903022610 | 56 | 298 | 1.0 | 2.0 | 0.00 | 0.00 | 0.00 | 84 | 1020.5 |
| 20260903022107 | 56 | 306 | 0.0 | 1.0 | 0.00 | 0.00 | 0.00 | 83 | 1020.5 |
| 20260903021607 | 56 | 322 | 0.0 | 1.0 | 0.00 | 0.00 | 0.00 | 83 | 1020.5 |
| 20260903021110 | 56 | 353 | 0.0 | 1.0 | 0.00 | 0.00 | 0.00 | 83 | 1020.5 |
| 20260903020613 | 56 | 316 | 0.0 | 1.0 | 0.00 | 0.00 | 0.00 | 83 | 1020.5 |
| 20260903020110 | 56 | 320 | 0.0 | 1.0 | 0.00 | 0.00 | 0.00 | 83 | 1020.5 |
| 20260903015610 | 56 | 33 | 0.0 | 0.0 | 0.00 | 0.00 | 0.00 | 82 | 1020.5 |
| 20260903015107 | 56 | 314 | 0.0 | 1.0 | 0.00 | 0.00 | 0.00 | 82 | 1020.5 |
| 20260903014607 | 57 | 308 | 0.0 | 1.0 | 0.00 | 0.00 | 0.00 | 82 | 1020.5 |
| 20260903014107 | 57 | 281 | 0.0 | 1.0 | 0.00 | 0.00 | 0.00 | 81 | 1020.5 |
| 20260903013613 | 57 | 282 | 0.0 | 1.0 | 0.00 | 0.00 | 0.00 | 81 | 1020.5 |
| 20260903013110 | 57 | 288 | 0.0 | 1.0 | 0.00 | 0.00 | 0.00 | 81 | 1020.5 |
| 20260903012613 | 57 | 317 | 0.0 | 1.0 | 0.00 | 0.00 | 0.00 | 80 | 1020.5 |
| 20260903012107 | 58 | 269 | 0.0 | 1.0 | 0.00 | 0.00 | 0.00 | 79 | 1020.5 |
| 20260903011607 | 58 | 304 | 0.0 | 2.0 | 0.00 | 0.00 | 0.00 | 78 | 1020.5 |
| 20260903011110 | 58 | 281 | 0.0 | 2.0 | 0.00 | 0.00 | 0.00 | 78 | 1020.5 |
| 20260903010610 | 58 | 277 | 0.0 | 1.0 | 0.00 | 0.00 | 0.00 | 78 | 1020.5 |
| 20260903010108 | 59 | 267 | 0.0 | 2.0 | 0.00 | 0.00 | 0.00 | 78 | 1020.5 |
| 20260903005607 | 59 | 295 | 1.0 | 2.0 | 0.00 | 0.00 | 0.00 | 77 | 1020.5 |
| 20260903005110 | 59 | 296 | 1.0 | 1.0 | 0.00 | 0.00 | 0.00 | 77 | 1020.5 |
| 20260903004610 | 59 | 296 | 0.0 | 1.0 | 0.00 | 0.00 | 0.00 | 76 | 1020.5 |
| 20260903004107 | 59 | 280 | 0.0 | 1.0 | 0.00 | 0.00 | 0.00 | 76 | 1020.5 |
| 20260903003607 | 60 | 276 | 0.0 | 2.0 | 0.00 | 0.00 | 0.00 | 76 | 1020.5 |
| 20260903003113 | 60 | 313 | 0.0 | 1.0 | 0.00 | 0.00 | 0.00 | 76 | 1020.5 |
| 20260903002610 | 60 | 306 | 0.0 | 1.0 | 0.00 | 0.00 | 0.00 | 76 | 1020.5 |
| 20260903002107 | 60 | 283 | 0.0 | 1.0 | 0.00 | 0.00 | 0.00 | 75 | 1020.5 |
| 20260903001610 | 60 | 293 | 0.0 | 1.0 | 0.00 | 0.00 | 0.00 | 75 | 1020.5 |
| 20260903001107 | 60 | 274 | 0.0 | 1.0 | 0.00 | 0.00 | 0.00 | 74 | 1020.5 |
| 20260903000610 | 60 | 286 | 0.0 | 1.0 | 0.00 | 0.00 | 0.00 | 74 | 1020.5 |
| 20260903000113 | 60 | 286 | 0.0 | 1.0 | 0.00 | 0.00 | 0.00 | 74 | 1020.5 |
| 20260902235607 | 61 | 319 | 0.0 | 1.0 | 0.00 | 0.00 | 0.00 | 74 | 1020.5 |
| 20260902235107 | 61 | 283 | 1.0 | 1.0 | 0.00 | 0.00 | 0.00 | 73 | 1020.5 |
| 20260902234607 | 61 | 293 | 0.0 | 1.0 | 0.00 | 0.00 | 0.00 | 73 | 1020.5 |
| 20260902234113 | 61 | 306 | 0.0 | 2.0 | 0.00 | 0.00 | 0.00 | 72 | 1020.5 |
| 20260902233616 | 61 | 278 | 0.0 | 1.0 | 0.00 | 0.00 | 0.00 | 71 | 1020.5 |
| 20260902233113 | 61 | 315 | 0.0 | 1.0 | 0.00 | 0.00 | 0.00 | 71 | 1020.5 |
| 20260902232610 | 62 | 287 | 0.0 | 1.0 | 0.00 | 0.00 | 0.00 | 71 | 1020.5 |
| 20260902232107 | 62 | 311 | 0.0 | 1.0 | 0.00 | 0.00 | 0.00 | 70 | 1020.5 |
| 20260902231607 | 62 | 265 | 0.0 | 1.0 | 0.00 | 0.00 | 0.00 | 69 | 1020.5 |
| 20260902231107 | 62 | 252 | 0.0 | 1.0 | 0.00 | 0.00 | 0.00 | 69 | 1020.5 |
| 20260902230613 | 62 | 212 | 0.0 | 1.0 | 0.00 | 0.00 | 0.00 | 68 | 1020.5 |
| 20260902230110 | 62 | 310 | 0.0 | 1.0 | 0.00 | 0.00 | 0.00 | 68 | 1020.5 |
| 20260902225610 | 62 | 312 | 0.0 | 1.0 | 0.00 | 0.00 | 0.00 | 67 | 1020.5 |
| 20260902225111 | 62 | 276 | 0.0 | 1.0 | 0.00 | 0.00 | 0.00 | 67 | 1020.5 |
| 20260902224610 | 62 | 319 | 0.0 | 1.0 | 0.00 | 0.00 | 0.00 | 67 | 1020.5 |
| 20260902224116 | 62 | 288 | 0.0 | 1.0 | 0.00 | 0.00 | 0.00 | 67 | 1020.5 |
| 20260902223607 | 62 | 260 | 0.0 | 1.0 | 0.00 | 0.00 | 0.00 | 68 | 1020.5 |
| 20260902223107 | 62 | 253 | 0.0 | 1.0 | 0.00 | 0.00 | 0.00 | 68 | 1020.5 |
| 20260902222607 | 62 | 272 | 0.0 | 1.0 | 0.00 | 0.00 | 0.00 | 67 | 1020.5 |
| 20260902222107 | 62 | 269 | 0.0 | 1.0 | 0.00 | 0.00 | 0.00 | 67 | 1020.5 |
| 20260902221610 | 62 | 230 | 0.0 | 1.0 | 0.00 | 0.00 | 0.00 | 67 | 1020.5 |
| 20260902221113 | 62 | 304 | 0.0 | 1.0 | 0.00 | 0.00 | 0.00 | 67 | 1020.5 |
| 20260902220613 | 62 | 292 | 0.0 | 1.0 | 0.00 | 0.00 | 0.00 | 67 | 1020.5 |
| 20260902220113 | 62 | 280 | 0.0 | 1.0 | 0.00 | 0.00 | 0.00 | 67 | 1020.5 |
| 20260902215610 | 62 | 308 | 0.0 | 1.0 | 0.00 | 0.00 | 0.00 | 66 | 1020.5 |
| 20260902215107 | 62 | 204 | 0.0 | 1.0 | 0.00 | 0.00 | 0.00 | 68 | 1020.5 |
| 20260902214607 | 62 | 320 | 0.0 | 2.0 | 0.00 | 0.00 | 0.00 | 68 | 1020.5 |
| 20260902214107 | 62 | 310 | 1.0 | 2.0 | 0.00 | 0.00 | 0.00 | 69 | 1020.5 |
| 20260902213613 | 62 | 313 | 0.0 | 2.0 | 0.00 | 0.00 | 0.00 | 68 | 1020.5 |
| 20260902213113 | 62 | 307 | 0.0 | 1.0 | 0.00 | 0.00 | 0.00 | 69 | 1020.5 |
| 20260902212613 | 63 | 290 | 0.0 | 1.0 | 0.00 | 0.00 | 0.00 | 67 | 1020.5 |
| 20260902212107 | 63 | 261 | 0.0 | 1.0 | 0.00 | 0.00 | 0.00 | 67 | 1020.5 |
| 20260902211610 | 63 | 294 | 1.0 | 2.0 | 0.00 | 0.00 | 0.00 | 66 | 1020.5 |
| 20260902211110 | 63 | 248 | 1.0 | 2.0 | 0.00 | 0.00 | 0.00 | 66 | 1020.5 |
| 20260902210607 | 63 | 174 | 0.0 | 1.0 | 0.00 | 0.00 | 0.00 | 66 | 1020.2 |
| 20260902210113 | 63 | 214 | 0.0 | 2.0 | 0.00 | 0.00 | 0.00 | 66 | 1020.2 |
| 20260902205616 | 63 | 196 | 0.0 | 1.0 | 0.00 | 0.00 | 0.00 | 66 | 1020.2 |
| 20260902205110 | 63 | 197 | 0.0 | 1.0 | 0.00 | 0.00 | 0.00 | 66 | 1020.2 |
| 20260902204613 | 63 | 205 | 0.0 | 2.0 | 0.00 | 0.00 | 0.00 | 65 | 1020.2 |
| 20260902204107 | 63 | 270 | 1.0 | 1.0 | 0.00 | 0.00 | 0.00 | 65 | 1020.2 |
| 20260902203607 | 63 | 287 | 0.0 | 1.0 | 0.00 | 0.00 | 0.00 | 65 | 1020.2 |
| 20260902203107 | 64 | 332 | 0.0 | 1.0 | 0.00 | 0.00 | 0.00 | 65 | 1020.2 |
| 20260902202607 | 64 | 202 | 0.0 | 1.0 | 0.00 | 0.00 | 0.00 | 64 | 1020.2 |
| 20260902202110 | 64 | 196 | 0.0 | 2.0 | 0.00 | 0.00 | 0.00 | 64 | 1020.2 |
| 20260902201607 | 64 | 200 | 1.0 | 2.0 | 0.00 | 0.00 | 0.00 | 64 | 1020.2 |
| 20260902201113 | 64 | 160 | 0.0 | 1.0 | 0.00 | 0.00 | 0.00 | 66 | 1020.2 |
| 20260902200610 | 64 | 220 | 0.0 | 0.0 | 0.00 | 0.00 | 0.00 | 66 | 1020.2 |
| 20260902200110 | 64 | 227 | 0.0 | 1.0 | 0.00 | 0.00 | 0.00 | 66 | 1020.2 |
| 20260902195607 | 64 | 292 | 0.0 | 1.0 | 0.00 | 0.00 | 0.00 | 65 | 1020.2 |
| 20260902195107 | 65 | 307 | 0.0 | 1.0 | 0.00 | 0.00 | 0.00 | 64 | 1020.2 |
| 20260902194614 | 65 | 217 | 0.0 | 1.0 | 0.00 | 0.00 | 0.00 | 63 | 1020.2 |
| 20260902194107 | 65 | 303 | 0.0 | 1.0 | 0.00 | 0.00 | 0.00 | 62 | 1020.2 |
| 20260902193610 | 65 | 314 | 0.0 | 1.0 | 0.00 | 0.00 | 0.00 | 61 | 1020.2 |
| 20260902193107 | 66 | 297 | 0.0 | 1.0 | 0.00 | 0.00 | 0.00 | 61 | 1020.2 |
| 20260902192616 | 66 | 299 | 1.0 | 1.0 | 0.00 | 0.00 | 0.00 | 61 | 1020.2 |
| 20260902192107 | 66 | 300 | 0.0 | 1.0 | 0.00 | 0.00 | 0.00 | 60 | 1019.8 |
| 20260902191607 | 66 | 287 | 0.0 | 1.0 | 0.00 | 0.00 | 0.00 | 60 | 1019.8 |
| 20260902191110 | 67 | 315 | 0.0 | 1.0 | 0.00 | 0.00 | 0.00 | 59 | 1019.8 |
| 20260902190607 | 67 | 269 | 0.0 | 1.0 | 0.00 | 0.00 | 0.00 | 58 | 1019.8 |
| 20260902190107 | 67 | 282 | 0.0 | 1.0 | 0.00 | 0.00 | 0.00 | 58 | 1019.8 |
| 20260902185607 | 67 | 281 | 0.0 | 1.0 | 0.00 | 0.00 | 0.00 | 57 | 1019.8 |
| 20260902185108 | 68 | 305 | 0.0 | 2.0 | 0.00 | 0.00 | 0.00 | 56 | 1019.8 |
| 20260902184607 | 68 | 304 | 1.0 | 2.0 | 0.00 | 0.00 | 0.00 | 55 | 1019.8 |
| 20260902184107 | 69 | 307 | 1.0 | 2.0 | 0.00 | 0.00 | 0.00 | 54 | 1019.5 |
| 20260902183612 | 69 | 304 | 1.0 | 3.0 | 0.00 | 0.00 | 0.00 | 52 | 1019.5 |
| 20260902183107 | 69 | 306 | 1.0 | 4.0 | 0.00 | 0.00 | 0.00 | 52 | 1019.5 |
| 20260902182613 | 69 | 289 | 1.0 | 4.0 | 0.00 | 0.00 | 0.00 | 52 | 1019.5 |
| 20260902182110 | 70 | 284 | 1.0 | 3.0 | 0.00 | 0.00 | 0.00 | 52 | 1019.5 |
| 20260902181608 | 70 | 258 | 1.0 | 4.0 | 0.00 | 0.00 | 0.00 | 51 | 1019.5 |
| 20260902181110 | 70 | 258 | 1.0 | 4.0 | 0.00 | 0.00 | 0.00 | 51 | 1019.5 |
| 20260902180607 | 70 | 267 | 1.0 | 6.0 | 0.00 | 0.00 | 0.00 | 51 | 1019.5 |
| 20260902180113 | 71 | 304 | 1.0 | 5.0 | 0.00 | 0.00 | 0.00 | 51 | 1019.2 |
| 20260902175607 | 71 | 234 | 2.0 | 4.0 | 0.00 | 0.00 | 0.00 | 50 | 1019.2 |
| 20260902175110 | 71 | 270 | 1.0 | 3.0 | 0.00 | 0.00 | 0.00 | 51 | 1019.2 |
| 20260902174611 | 71 | 283 | 1.0 | 5.0 | 0.00 | 0.00 | 0.00 | 50 | 1019.2 |
| 20260902174107 | 72 | 287 | 1.0 | 5.0 | 0.00 | 0.00 | 0.00 | 49 | 1019.2 |
| 20260902173607 | 72 | 260 | 1.0 | 5.0 | 0.00 | 0.00 | 0.00 | 49 | 1019.2 |
| 20260902173110 | 72 | 282 | 1.0 | 8.0 | 0.00 | 0.00 | 0.00 | 49 | 1019.2 |
| 20260902172607 | 72 | 305 | 3.0 | 6.0 | 0.00 | 0.00 | 0.00 | 48 | 1019.2 |
| 20260902172107 | 73 | 300 | 1.0 | 6.0 | 0.00 | 0.00 | 0.00 | 49 | 1019.2 |
| 20260902171610 | 73 | 295 | 2.0 | 6.0 | 0.00 | 0.00 | 0.00 | 49 | 1019.2 |
| 20260902171107 | 73 | 295 | 2.0 | 5.0 | 0.00 | 0.00 | 0.00 | 48 | 1018.8 |
| 20260902170607 | 73 | 316 | 2.0 | 6.0 | 0.00 | 0.00 | 0.00 | 48 | 1019.2 |
| 20260902170107 | 73 | 309 | 2.0 | 4.0 | 0.00 | 0.00 | 0.00 | 47 | 1019.2 |
| 20260902165607 | 73 | 312 | 1.0 | 5.0 | 0.00 | 0.00 | 0.00 | 47 | 1019.2 |
| 20260902165107 | 73 | 312 | 3.0 | 7.0 | 0.00 | 0.00 | 0.00 | 47 | 1019.2 |
| 20260902164610 | 74 | 301 | 2.0 | 5.0 | 0.00 | 0.00 | 0.00 | 46 | 1019.2 |
| 20260902164110 | 74 | 294 | 2.0 | 5.0 | 0.00 | 0.00 | 0.00 | 46 | 1019.2 |
| 20260902163613 | 74 | 311 | 1.0 | 3.0 | 0.00 | 0.00 | 0.00 | 46 | 1018.8 |
| 20260902163110 | 73 | 308 | 1.0 | 4.0 | 0.00 | 0.00 | 0.00 | 46 | 1018.8 |
| 20260902162610 | 74 | 310 | 1.0 | 7.0 | 0.00 | 0.00 | 0.00 | 45 | 1018.8 |
| 20260902162108 | 74 | 273 | 3.0 | 7.0 | 0.00 | 0.00 | 0.00 | 45 | 1019.2 |
| 20260902161610 | 74 | 318 | 1.0 | 7.0 | 0.00 | 0.00 | 0.00 | 45 | 1019.2 |
| 20260902161113 | 74 | 311 | 4.0 | 7.0 | 0.00 | 0.00 | 0.00 | 44 | 1019.2 |
| 20260902160607 | 74 | 262 | 3.0 | 7.0 | 0.00 | 0.00 | 0.00 | 43 | 1019.2 |
| 20260902160107 | 75 | 305 | 3.0 | 7.0 | 0.00 | 0.00 | 0.00 | 43 | 1019.2 |
| 20260902155607 | 75 | 282 | 1.0 | 7.0 | 0.00 | 0.00 | 0.00 | 43 | 1019.2 |
| 20260902155110 | 75 | 315 | 3.0 | 7.0 | 0.00 | 0.00 | 0.00 | 42 | 1019.2 |
| 20260902154613 | 76 | 278 | 2.0 | 6.0 | 0.00 | 0.00 | 0.00 | 42 | 1019.2 |
| 20260902154107 | 76 | 259 | 1.0 | 5.0 | 0.00 | 0.00 | 0.00 | 42 | 1019.2 |
| 20260902153610 | 76 | 263 | 1.0 | 5.0 | 0.00 | 0.00 | 0.00 | 42 | 1019.2 |
| 20260902153107 | 76 | 287 | 2.0 | 6.0 | 0.00 | 0.00 | 0.00 | 42 | 1019.2 |
| 20260902152610 | 76 | 279 | 3.0 | 7.0 | 0.00 | 0.00 | 0.00 | 41 | 1019.2 |
| 20260902152113 | 76 | 287 | 2.0 | 7.0 | 0.00 | 0.00 | 0.00 | 41 | 1019.2 |
| 20260902151607 | 77 | 278 | 3.0 | 7.0 | 0.00 | 0.00 | 0.00 | 41 | 1019.2 |
| 20260902151107 | 76 | 291 | 3.0 | 6.0 | 0.00 | 0.00 | 0.00 | 40 | 1019.2 |
| 20260902150610 | 78 | 285 | 2.0 | 7.0 | 0.00 | 0.00 | 0.00 | 39 | 1019.2 |
| 20260902150113 | 78 | 292 | 1.0 | 4.0 | 0.00 | 0.00 | 0.00 | 39 | 1019.2 |
| 20260902145613 | 79 | 277 | 1.0 | 3.0 | 0.00 | 0.00 | 0.00 | 38 | 1019.2 |
| 20260902145107 | 80 | 244 | 0.0 | 5.0 | 0.00 | 0.00 | 0.00 | 39 | 1019.2 |
| 20260902144613 | 78 | 244 | 2.0 | 5.0 | 0.00 | 0.00 | 0.00 | 40 | 1019.2 |
| 20260902144116 | 77 | 309 | 1.0 | 7.0 | 0.00 | 0.00 | 0.00 | 40 | 1019.2 |
| 20260902143611 | 78 | 260 | 1.0 | 5.0 | 0.00 | 0.00 | 0.00 | 41 | 1019.2 |
| 20260902143107 | 78 | 329 | 2.0 | 7.0 | 0.00 | 0.00 | 0.00 | 41 | 1019.2 |
| 20260902142607 | 76 | 304 | 2.0 | 5.0 | 0.00 | 0.00 | 0.00 | 43 | 1019.2 |
| 20260902142107 | 77 | 318 | 3.0 | 7.0 | 0.00 | 0.00 | 0.00 | 42 | 1019.5 |
| 20260902141616 | 76 | 307 | 1.0 | 6.0 | 0.00 | 0.00 | 0.00 | 43 | 1019.5 |
| 20260902141107 | 76 | 314 | 1.0 | 8.0 | 0.00 | 0.00 | 0.00 | 43 | 1019.5 |
| 20260902140610 | 76 | 292 | 2.0 | 6.0 | 0.00 | 0.00 | 0.00 | 42 | 1019.5 |
| 20260902140107 | 76 | 265 | 2.0 | 7.0 | 0.00 | 0.00 | 0.00 | 41 | 1019.5 |
| 20260902135610 | 76 | 278 | 2.0 | 6.0 | 0.00 | 0.00 | 0.00 | 42 | 1019.5 |
| 20260902135108 | 76 | 242 | 2.0 | 6.0 | 0.00 | 0.00 | 0.00 | 40 | 1019.5 |
| 20260902134610 | 77 | 292 | 2.0 | 6.0 | 0.00 | 0.00 | 0.00 | 39 | 1019.5 |
| 20260902134107 | 77 | 197 | 1.0 | 7.0 | 0.00 | 0.00 | 0.00 | 39 | 1019.5 |